Location: *
(47.8307°S, 178.3954°E)
Time: 07:04:23
(UTC+00:00)

Okean 2 Rocket - Pass Details

Date: 12 August 2024
Orbit: 613 x 638 km, 82.5° (Epoch: 18 September)

Event Time Altitude Azimuth Distance (km) Brightness Sun altitude
Exits shadow 16:48:21 36° 4° (N) 1,024 4.1 -24.7°
Drops below altitude 10° 16:51:02 10° 6° (N) 2,036 5.7 -24.2°
Sets 16:53:16 0° 6° (N) 2,939 6.6 -23.9°
